Gainesville, GA

4:53 PM EST on February 23, 2017 (GMT -0500)
Gilmer Memorial

Weather History for KGVL - January, 2012

Change the Weather History Date:

Monday, January 16, 2012

  Actual Average Record
Temperature  
Mean Temperature 42 °F 42 °F  
Max Temperature 50 °F 50 °F 76 °F (1952)
Min Temperature 34 °F 33 °F 5 °F (1972)
Degree Days  
Heating Degree Days 23 24  
Month to date heating degree days 384  
Since 1 July heating degree days 1580  
Moisture  
Dew Point 28 °F    
Average Humidity 57    
Maximum Humidity 67    
Minimum Humidity 46    
Precipitation  
Precipitation 0.00 in 0.17 in 3.32 in (1954)
Month to date precipitation 2.21  
Year to date precipitation 2.21  
Sea Level Pressure  
Sea Level Pressure 30.44 in    
Wind  
Wind Speed 3 mph (East)    
Max Wind Speed 7 mph    
Max Gust Speed -    
Visibility 10 miles    
Events      
T = Trace of Precipitation, MM = Missing Value Source: NWS Daily Summary

Daily Weather History Graph

Daily Weather History Graph

Search for Another Location

Airport or City:

Trip Planner

Search our weather history database for the weather conditions in past years. The results will help you decide how hot, cold, wet, or windy it might be!

Date:

Astronomy

Jan. 16, 2012 Rise Set
Actual Time 7:41 AM EST 5:49 PM EST
Civil Twilight 7:13 AM EST 6:16 PM EST
Nautical Twilight 6:43 AM EST 6:47 PM EST
Astronomical Twilight 6:12 AM EST 7:17 PM EST
Moon 12:53 AM EST (1/16) 11:58 AM EST (1/16)
Length of Visible Light 11h 02m
Length of Day
10h 08m
Waning Gibbous, 46% of the Moon is Illuminated
Jan 16
Waning Gibbous
Jan 23
New
Jan 30
First Quarter
Feb 7
Full
Feb 14
Last Quarter

Hourly Weather History & Observations

Time (EST) Temp. Windchill Dew Point Humidity Pressure Visibility Wind Dir Wind Speed Gust Speed Precip Events Conditions
12:53 AM 35.1 °F - 23.0 °F 61% 30.46 in 10.0 mi Calm Calm - N/A   Clear
1:53 AM 34.0 °F - 24.1 °F 67% 30.48 in 10.0 mi Calm Calm - N/A   Clear
2:53 AM 34.0 °F - 21.9 °F 61% 30.48 in 10.0 mi Calm Calm - N/A   Clear
3:53 AM 35.1 °F 30.1 °F 23.0 °F 61% 30.47 in 10.0 mi East 5.8 mph - N/A   Clear
4:53 AM 36.0 °F 32.1 °F 23.0 °F 59% 30.48 in 10.0 mi East 4.6 mph - N/A   Clear
5:53 AM 36.0 °F 31.1 °F 23.0 °F 59% 30.49 in 10.0 mi NE 5.8 mph - N/A   Clear
6:53 AM 36.0 °F 31.1 °F 23.0 °F 59% 30.49 in 10.0 mi ENE 5.8 mph - N/A   Clear
7:53 AM 36.0 °F 32.1 °F 23.0 °F 59% 30.52 in 10.0 mi East 4.6 mph - N/A   Clear
8:53 AM 36.0 °F 32.1 °F 24.1 °F 62% 30.53 in 10.0 mi ESE 4.6 mph - N/A   Scattered Clouds
9:53 AM 37.9 °F 32.7 °F 25.0 °F 60% 30.54 in 10.0 mi ESE 6.9 mph - N/A   Overcast
10:53 AM 39.9 °F 35.8 °F 27.0 °F 60% 30.53 in 10.0 mi Variable 5.8 mph - N/A   Overcast
11:53 AM 45.0 °F - 28.9 °F 53% 30.50 in 10.0 mi Calm Calm - N/A   Mostly Cloudy
12:53 PM 46.0 °F 43.1 °F 28.9 °F 51% 30.46 in 10.0 mi ESE 5.8 mph - N/A   Overcast
1:53 PM 46.9 °F - 28.9 °F 50% 30.43 in 10.0 mi South 4.6 mph - N/A   Overcast
2:53 PM 48.0 °F - 30.0 °F 50% 30.39 in 10.0 mi Variable 3.5 mph - N/A   Overcast
3:53 PM 50.0 °F - 30.0 °F 46% 30.39 in 10.0 mi SE 5.8 mph - N/A   Overcast
4:53 PM 50.0 °F - 30.0 °F 46% 30.39 in 10.0 mi SE 5.8 mph - N/A   Overcast
5:53 PM 48.9 °F - 32.0 °F 52% 30.38 in 10.0 mi East 5.8 mph - N/A   Overcast
6:53 PM 48.0 °F - 32.0 °F 54% 30.38 in 8.0 mi ENE 5.8 mph - N/A   Overcast
7:53 PM 46.9 °F - 33.1 °F 59% 30.38 in 10.0 mi East 4.6 mph - N/A   Overcast
8:53 PM 46.0 °F 43.9 °F 33.1 °F 61% 30.37 in 10.0 mi East 4.6 mph - N/A   Overcast
9:53 PM 45.0 °F 43.5 °F 32.0 °F 60% 30.37 in 10.0 mi East 3.5 mph - N/A   Mostly Cloudy
10:53 PM 44.1 °F 41.5 °F 32.0 °F 63% 30.37 in 10.0 mi NE 4.6 mph - N/A   Mostly Cloudy
11:53 PM 43.0 °F 41.3 °F 32.0 °F 65% 30.34 in 10.0 mi ENE 3.5 mph - N/A   Mostly Cloudy